Location: Kernascl�den
(48.0062°N, 3.3198°W)
Time: 12:23:49
(UTC+00:00)

ATLAS 2AS CENTAUR R/B - Pass Details

Date: 21 January 2021
Orbit: 947 x 1265 km, 63.7° (Epoch: 13 February)

Event Time Altitude Azimuth Distance (km) Brightness Sun altitude
Rises 19:15:39 0° 275° (W) 4,222 7.2 -22.9°
Reaches altitude 10° 19:19:01 10° 287° (WNW) 3,247 6.2 -23.5°
Maximum altitude 19:25:35 28° 344° (NNW) 2,145 4.4 -24.6°
Enters shadow 19:29:34 19° 26° (NNE) 2,570 4.4 -25.2°
